www.pogodaiklimat.ru

Погода и климат >> Архив погоды >> Казахстан >> Пешной


ПОГОДА в Пешном

  • Прогноз погоды в Пешном
  • Монитор погоды в Пешном

АРХИВ ПОГОДЫ в Пешном

Время (UTC), дата Ветер
(напр.,м/с)
 
Видим.   Явления Облачность Т
(С)
Тd
(С)
f
(%)
Тe
(С)
Тes
(С)
Комфортность P
(гПа)
Po
(гПа)
Тmin
(С)
Tmax
(С)
R
(мм)
R24
(мм)
S
(см)
09 13.09 ЮВ 2 10 км 8/5 600 м
[Cb calv Ac cast Cs]
+25.4 +3.6 24 +24 +27 комфорт 1024.9 1027.8
12 13.09 Ю 4 10 км 6/4 600 м
[Cb calv Ac lent Cs]
+24.5 +2.5 24 +24 +25 комфорт 1024.0 1026.9
15 13.09 З 2 10 км 8/4 600 м
[Cb calv Ac lent Ci]
+21.6 +11.5 53 +24 +24 комфорт 1023.5 1026.4 +27.3
18 13.09 З 2 н/о 6/3 600 м
[Cb calv Ac As]
+15.4 +12.5 83 +15 +15 1023.6 1026.6 +27.3
21 13.09 СЗ 2 н/о 6/3 600 м
[Cb calv Ac As]
+12.4 +10.0 85 +11 +11 1022.8 1025.8
00 14.09 СЗ 2 н/о 8/6 600 м
[Cb calv Ac As]
+12.8 +7.4 70 +12 +12 1022.4 1025.4
03 14.09 С 2 10 км 4/3 600 м
[Cb calv Cs]
+10.5 +5.3 70 +9 +9 1022.3 1025.3
09 14.09 Ю 2 10 км дым 4/4 1000 м
[Cu hum]
+25.8 +7.3 31 +26 +30 жарко 1021.9 1024.7
12 14.09 ЮЗ 4 10 км дым 4/3 1000 м
[Cu hum Ac cast]
+25.4 +7.0 31 +25 +27 комфорт 1020.8 1023.6
15 14.09 ЮЗ 2 10 км дым 3/0
[Ac cuf]
+20.1 +14.0 68 +23 +23 комфорт 1020.4 1023.3 +27.1
18 14.09 ЮЗ 2 н/о дым 1/0
[Ac cuf]
+16.5 +15.3 93 +17 +17 1020.6 1023.5 +27.1
21 14.09 З 2 н/о дым 1/0
[Ac cast]
+15.7 +12.2 80 +16 +16 1020.5 1023.4
00 15.09 З 2 н/о дым 4/0
[Ac cast]
+14.1 +7.7 65 +14 +14 1020.1 1023.0
03 15.09 ЮЗ 2 10 км 6/3 1000 м
[Cu hum Ac cast Cs]
+13.5 +8.8 73 +13 +13 1020.4 1023.3
06 15.09 штиль 0 10 км 8/0
[Cs]
+21.9 +12.2 54 +24 +28 комфорт 1020.8 1023.6 +8.9
09 15.09 ЮЗ 4 10 км 6/4 1000 м
[Cu hum Cs]
+23.6 +9.9 42 +25 +27 комфорт 1020.2 1023.0
12 15.09 ЮЗ 4 10 км дым 6/1 1000 м
[Cu hum Ci fib]
+23.0 +12.1 50 +26 +28 жарко 1019.0 1021.8
15 15.09 штиль 0 10 км 6/3 1000 м
[Sc diur, vesp Ac cast Ci fib]
+19.3 +14.7 75 +21 +21 комфорт 1018.0 1020.9 +24.9
18 15.09 ЮЗ 2 н/о 6/0
[Ac As Ci sp]
+17.1 +15.1 88 +17 +17 1017.6 1020.5 +24.9
21 15.09 ЮЗ 2 н/о 8/0
[Ac As Cs]
+16.9 +15.7 93 +17 +17 1017.1 1020.0
00 16.09 З 4 н/о 8/4 600 м
[Cb calv Ac cast Ci fib]
+18.6 +15.9 84 +19 +19 1017.3 1020.2
03 16.09 С 2 10 км 8/0
[Ac cast Cs]
+11.7 +10.4 92 +10 +10 1018.0 1020.9
09 16.09 С 2 10 км 4/0
[Ac As Cs]
+22.0 +8.1 41 +23 +28 комфорт 1017.5 1020.3
12 16.09 Ю 2 10 км 3/0
[Cs]
+22.1 +10.6 48 +24 +28 комфорт 1015.9 1018.7
15 16.09 Ю 2 10 км 8/0
[Ac As Cs]
+17.6 +12.8 73 +18 +18 1014.4 1017.3 +23.8
18 16.09 ЮЗ 2 н/о 8/0
[Ac cuf Cs]
+15.1 +13.1 88 +15 +15 1014.8 1017.7 +23.8
21 16.09 ЮЗ 2 н/о 8/0
[Ac cuf Cs]
+15.3 +14.2 93 +15 +15 1014.1 1017.0
00 17.09 Ю 2 н/о туман 8/0
[Cs]
+10.4 +9.5 94 +9 +9 1013.5 1016.5
03 17.09 Ю 2 4000 м туман 6/0
[Cs]
+13.2 +12.6 96 +12 +12 1013.4 1016.3
06 17.09 Ю 4 10 км {туман} 3/3 1000 м
[Cu med, cong]
+21.8 +19.0 84 +27 +28 душно 1013.2 1016.0 +8.2
15 17.09 штиль 0 10 км 10/6 600 м
[Cb calv Ac trans Cs]
+21.6 +18.6 83 +26 +26 душно 1009.0 1011.8 +25.0
18 17.09 штиль 0 н/о 10/10 600 м
[Cb calv]
+19.2 +16.9 87 +21 +21 комфорт 1008.5 1011.4 +25.0
21 17.09 штиль 0 н/о дымка 10/10 600 м
[Cb calv]
+19.4 +18.4 94 +22 +22 комфорт 1008.0 1010.9
00 18.09 штиль 0 н/о {ливн. осадки} 10/10 600 м
[Cb calv]
+16.8 +14.4 86 +17 +17 1007.2 1010.1
03 18.09 З 4 10 км 6/3 600 м
[Cb calv Ac trans]
+18.2 +14.4 78 +18 +18 1007.6 1010.5
06 18.09 СЗ 2 10 км 3/0
[Ci sp]
+20.8 +11.7 56 +24 +26 комфорт 1009.5 1012.3 +15.8 1
09 18.09 З 2 10 км 3/3 1000 м
[Cu hum]
+25.0 +9.8 38 +26 +30 жарко 1014.4 1013.2
15 18.09 Ю 4 10 км 6/0
[Ac cuf Cs]
+21.3 +16.4 74 +25 +25 комфорт 1011.2 1014.0 +27.8
21 18.09 Ю 4 н/о ясно +20.8 +17.4 81 +25 +25 комфорт 1010.6 1013.4
03 19.09 З 4 10 км 3/0
[Ac cuf]
+20.7 +16.2 75 +24 +24 комфорт 1011.7 1014.5
06 19.09 З 8 10 км 3/0
[Ac lent]
+20.6 +8.6 46 +21 +22 комфорт 1014.4 1017.2 +20.0
09 19.09 З 6 10 км 4/0
[Ac lent Cc]
+21.2 -0.5 23 +21 +23 комфорт 1015.9 1018.7
12 19.09 З 6 10 км 8/0
[Ac und]
+18.7 -0.5 27 +18 +19 1017.4 1020.3
15 19.09 ЮЗ 2 10 км 6/0
[Cs]
+16.9 +3.6 41 +17 +17 1018.0 1020.9 +22.7
18 19.09 ЮЗ 2 н/о 3/0
[Ac cuf]
+14.7 +6.7 59 +15 +15 1019.5 1022.4 +22.7
00 20.09 З 2 н/о 6/0
[Ac und]
+8.6 +2.6 66 +7 +7 1020.1 1023.1
03 20.09 штиль 0 10 км 6/0
[Ac trans Ci]
+6.6 +2.5 75 +6 +6 1019.9 1022.9

 

Местоположение метеостанции Пешной (Атырауская область, Казахстан): широта 56.92 долгота 41.68 высота над уровнем моря -21 м.

В архиве по умолчанию представлена погода в Пешном за последнюю неделю. Архивные данные за месяц целиком и за предыдущие месяцы, начиная с января 2011 года, Вы можете получить, выбрав интересующий диапазон дат из раскрывающегося списка и нажав кнопку "Ввод!".


*Определитесь, кто Вы:
робот инопланетянин человек

Внимание! Время в таблицах - всемирное. Для получения местного времени необходимо прибавить поправку, которая равна 5 ч.

Смотрите также архив погоды в соседних городах и на ближайших метеорологических станциях:

Погода в Шуе (Ивановская область, Россия) (19 км)
Погода в Вичуге (Ивановская область, Россия) (36 км)
Погода в Иванове (Ивановская область, Россия) (43 км)
Погода в Приволжске (Ивановская область, Россия) (57 км)
Погода в Плесе (Ивановская область, Россия) (59 км)
Погода в Кинешме (Ивановская область, Россия) (63 км)
Погода в Коврове (Владимирская область, Россия) (65 км)
Погода в Тейково (Ивановская область, Россия) (70 км)
Погода в Вязниках (Владимирская область, Россия) (86 км)
Погода в Суздале (Владимирская область, Россия) (93 км)

Пояснения к столбцам:

Ветер - указаны скорость ветра в м/с - средняя за 10 мин, порывы в срок и между сроками (в фигурных скобках) и направление, откуда дует ветер: С - северный, СВ - северо-восточный, В - восточный, ЮВ - юго-восточный, Ю - южный, ЮЗ - юго-западный, З - западный, СЗ - северо-западный.
Видимость - горизонтальная дальность видимости в метрах или километрах. При видимости от 1 до 10 км при отсутствии осадков обычно наблюдается дымка, при ухудшении видимости до 1 км и менее - туман. В сухую погоду видимость может ухудшаться дымом, пылью или мглою.
Явления - указаны атмосферные явления, наблюдавшиеся в срок или в последний час перед сроком; фигурными скобками обозначены явления, наблюдавшиеся между сроками (за 1-3 часа до срока); квадратными скобками обозначены град или гололедные отложения с указанием их диаметра в мм.
Облачность - указаны через наклонную черту общая и нижняя облачность в баллах и высота нижней границы облаков в метрах; квадратными скобками обозначены формы облаков: Ci - перистые, Cs - перисто-слоистые, Cc - перисто-кучевые, Ac - высококучевые, As - высокослоистые, Sc - слоисто-кучевые, Ns - слоисто-дождевые, Cu - кучевые, Cb - кучево-дождевые. Подробнее классификацию облаков см. в Атласе облаков (PDF).
T - Температура воздуха - температура, измеренная на высоте 2 м над землей.
Td - Температура точки росы - температура, при понижении до которой содержащийся в воздухе водяной пар достигнет насыщения.
f - Относительная влажность воздуха - влажноcть воздуха, измеренная на высоте 2 м над землей.
Te - Эффективная температура - температура, которую ощущает одетый по сезону человек в тени. Характеристика душности погоды. При расчете учитывается влияние влажности воздуха и скорости ветра на теплоощущения человека.
Tes - Эффективная температура на солнце - температура, которую ощущает человек, с поправкой на солнечный нагрев. Характеристика знойности погоды. Зависит от высоты солнца над горизонтом, облачности и скорости ветра. Ночью, в пасмурную погоду, а также при ветре 12 м/с и более поправка равна нулю.
P - Атмосферное давление - приведенное к уровню моря атмосферное давление.
Po - Атмосферное давление - измеренное на уровне метеостанции атмосферное давление.
Tmin - Минимальная температура - минимум температуры воздуха на высоте 2 м над землей.
Tmax - Максимальная температура - максимум температуры воздуха на высоте 2 м над землей.
R - Количество осадков - Количество выпавших осадков за период времени, мм. При наведении курсора мыши на число - период времени, за который выпало указанное количество осадков.
R24 - Количество осадков - Количество выпавших осадков за 24 часа, мм.
S - Снежный покров - Высота снежного покрова, см. При наведении курсора мыши на число - состояние снежного покрова и степень покрытия местности в баллах.